Terminal Aerodrome Forecast
Issued by NWS Blacksburg, VA

Home | Current Version | Previous Version | Text Only | Print | Product List | Glossary On
Versions: 1 2 3 4 5 6 7 8 9 10 11 12 13 14 15 16 17 18 19 20 21 22 23 24 25 26 27 28 29 30 31
000
FTUS41 KRNK 041135
TAFLYH
TAF
KLYH 041135Z 0412/0512 00000KT P6SM SKC
     FM041400 20005KT P6SM SCT060
     FM041900 22007KT P6SM BKN070
     FM042300 19003KT P6SM SCT080 SCT250=

USA.gov is the U.S. government's official web portal to all federal, state and local government web resources and services.